SCP
0 0 0 0 0 0 -0 -0 0 0 0 0 0 0 0 0 0 -0 -0 -0 0 0 0 0 0 0 0 0 0 0 0 0 0 0 0 0 0 0 0 0 0 0 0
0 0 0 0 0 -0 -0 -0 0 0 0 0 0 0 0 0 0 0 -0 -0 0 0 0 0 0 0 0 0 0 0 0 0 0 0 0 0 0 0 0 0 0 0 0
0 0 0 0 0 -0 -0 -0 0 0 0 0 0 0 0 0 0 0 0 0 -0 -0 -0 0 0 0 0 0 0 0 0 0 0 0 0 0 0 0 0 0 0 0 0
0 0 0 0 0 0 -0 0 0 0 0 0 0 0 0 0 0 0 0 0 0 -0 -0 0 0 0 0 0 0 0 0 0 0 0 0 0 0 0 0 0 0 0 0
0 0 0 0 0 0 0 0 0 0 0 0 0 0 0 0 0 0 0 0 0 0 -0 0 0 0 0 0 0 0 0 0 0 0 0 0 0 0 0 0 0 0 0
0 0 0 0 0 0 0 0 0 0 0 0 0 0 0 0 0 0 0 0 0 0 0 0 0 0 0 0 0 0 0 0 0 0 0 0 0 0 0 0 0 0 0
0 0 0 0 0 0 0 0 0 0 0 0 0 0 0 0 0 0 0 0 0 0 0 0 0 0 0 0 0 0 0 0 0 0 0 0 0 0 0 0 0 0 0
0 0 0 0 0 0 0 0 0 0 0 0 0 0 0 0 0 0 0 0 0 0 0 0 0 0 0 0 0 0 0 0 0 0 0 0 0 0 0 0 0 0 0
0 0 0 0 0 0 0 0 0 0 0 0 0 0 0 0 0 0 0 0 0 0 0 0 0 0 0 0 0 0 0 0 0 0 0 0 0 0 0 0 0 0 0
0 0 0 0 0 0 0 0 0 0 0 0 0 0 0 0 0 0 0 0 0 0 0 0 0 0 0 0 0 0 0 0 0 0 0 0 0 0 0 0 0 0 0
0 0 0 0 0 0 0 0 0 0 0 0 0 0 0 0 0 0 0 0 0 0 0 0 0 0 0 0 0 0 0 0 0 0 0 0 0 0 0 0 0 0 0
0 0 0 0 0 0 0 0 0 0 0 0 0 0 0 0 0 0 0 0 0 0 0 0 0 0 0 0 0 0 0 0 0 0 0 0 0 0 0 0 0 0 0
0 0 0 0 0 0 0 0 0 0 0 0 0 0 0 0 0 0 0 0 0 0 0 0 0 0 0 0 0 0 0 0 0 0 0 0 0 0 0 0 0 0 0
0 0 0 0 0 0 0 0 0 0 0 0 0 0 0 0 0 0 0 0 0 0 0 0 0 0 0 0 0 0 0 0 0 0 0 0 0 0 0 0 0 0 0
0 0 0 0 0 0 0 0 0 0 0 0 0 0 0 0 0 0 0 0 0 0 0 0 0 0 0 0 0 0 0 0 0 0 0 0 0 0 0 0 0 0 0
0 0 0 0 0 0 0 0 0 0 0 0 0 0 0 0 0 0 0 0 0 0 0 0 0 0 0 0 0 0 0 0 0 0 0 0 0 0 0 0 0 0 0
0 0 0 0 0 0 0 0 0 0 0 0 0 0 0 0 0 0 0 0 0 0 0 0 0 0 0 0 0 0 0 0 0 0 0 0 0 0 0 0 0 0 0
0 0 0 0 0 0 0 0 0 0 0 0 0 0 0 0 0 0 0 0 0 0 0 0 0 0 0 0 0 0 0 0 0 0 0 0 0 0 0 0 0 0 0
0 0 0 0 0 0 0 0 0 0 0 0 0 0 0 0 0 0 0 0 0 0 0 0 0 0 0 0 0 0 0 0 0 0 0 0 0 0 0 0 0 0 0
0 0 0 0 0 0 0 0 0 0 0 0 0 0 0 0 0 0 0 0 0 0 0 0 0 0 0 0 0 0 0 0 0 0 0 0 0 0 0 0 0 0 0
0 0 0 0 0 0 0 0 0 0 0 0 0 0 0 0 0 0 0 0 0 0 0 0 0 0 0 0 0 0 0 0 0 0 0 0 0 0 0 0 0 0 0
0 0 0 0 0 0 0 0 0 0 0 0 0 0 0 0 0 0 0 0 0 0 0 0 0 0 0 0 0 0 0 0 0 0 0 0 0 0 0 0 0 0 0
0 0 0 0 0 0 0 0 0 0 0 0 0 0 0 0 0 0 0 0 0 0 0 0 0 0 0 0 0 0 0 0 0 0 0 0 0 0 0 0 0 0 0
0 0 0 0 0 0 0 0 0 0 0 0 0 0 0 0 0 0 0 0 0 0 0 0 0 0 0 0 0 0 0 0 0 0 0 0 0 0 0 0 0 0 0
0 0 0 0 0 0 0 0 0 0 0 0 0 0 0 0 0 0 0 0 0 0 0 0 0 0 0 0 0 0 0 0 0 0 0 0 0 0 0 0 0 0 0
0 0 0 0 0 0 0 0 0 0 0 0 0 0 0 0 0 0 0 0 0 0 0 0 0 0 0 0 0 0 0 0 0 0 0 0 0 0 0 0 0 0 0
Wind_Speed
6 5 4 4 4 3 4 4 4 4 5 5 4 4 5 5 5 4 3 6 6 5 5 6 6 5 4 3 3 4 5 5 6 7 7 7 7 7 7 6 5 4 3
6 6 6 5 5 5 5 5 5 4 4 3 3 5 6 6 5 4 3 4 5 4 4 6 6 6 5 5 4 4 5 6 6 7 7 7 7 7 6 6 6 5 4
8 8 7 7 7 6 5 4 4 3 3 3 4 5 5 5 5 5 4 3 3 4 5 5 6 6 6 6 5 5 6 6 6 7 7 7 7 6 6 6 6 6 5
10 9 8 8 7 6 5 4 3 3 3 3 3 2 3 3 4 4 4 4 3 2 4 5 5 5 6 5 5 5 6 6 6 6 7 6 6 6 6 6 6 6 5
10 8 8 8 7 5 5 5 3 3 3 2 2 2 2 2 3 4 4 5 4 4 3 4 6 5 5 5 5 6 6 6 6 6 6 6 5 5 5 5 5 5 5
8 7 6 7 7 5 4 4 4 3 3 3 2 1 0 1 1 3 4 5 4 5 4 3 3 4 6 6 6 6 6 6 6 6 6 5 5 4 4 4 4 4 5
7 7 6 6 6 6 6 6 4 4 2 2 3 2 2 2 2 2 3 4 5 5 5 4 3 2 3 6 6 7 7 7 6 6 6 5 4 4 4 3 4 4 4
5 6 6 5 5 5 5 5 4 3 2 2 3 2 1 4 3 2 1 3 5 4 5 6 4 4 3 2 4 7 6 6 7 6 6 6 5 4 4 4 3 3 3
3 4 5 5 5 5 5 5 5 5 3 2 2 4 3 4 2 3 2 1 3 4 4 5 6 5 5 4 3 6 7 6 7 7 7 6 6 5 4 4 3 3 3
1 2 4 4 4 4 5 4 4 4 5 3 2 2 3 4 2 1 3 2 1 3 4 4 6 6 6 5 5 7 9 8 8 8 8 7 7 6 5 4 4 4 3
3 2 2 3 3 3 4 4 4 4 3 3 3 2 2 1 2 2 2 3 2 2 2 3 4 5 7 6 5 7 10 9 8 8 8 8 8 7 6 5 5 4 3
3 3 3 3 3 3 3 4 4 4 4 4 3 3 3 3 3 3 4 3 2 3 2 2 3 4 5 6 9 12 12 11 9 8 8 8 9 8 7 6 6 5 5
2 3 3 3 3 3 3 3 3 3 4 4 4 3 3 3 3 3 3 3 2 2 2 2 2 3 4 5 6 12 12 12 11 10 9 8 8 9 9 8 8 7 7
2 2 2 2 2 2 2 2 2 2 3 4 5 4 3 3 3 4 4 4 2 1 2 3 2 3 4 4 7 12 8 13 12 11 10 9 9 8 8 9 9 9 8
1 2 2 2 1 1 0 1 1 2 3 3 4 4 3 3 3 3 3 4 4 3 3 3 3 2 3 3 6 6 6 11 13 12 11 11 11 10 10 9 8 7 7
2 2 1 1 1 1 1 1 1 2 3 3 3 4 3 2 3 3 3 3 3 4 3 3 3 2 2 2 6 6 6 10 12 12 12 12 12 12 11 11 10 9 8
1 1 1 1 2 2 2 2 3 3 4 3 3 4 4 4 3 3 2 3 3 3 4 3 2 2 2 2 2 3 4 4 5 11 12 13 14 14 13 13 12 11 10
2 2 2 2 2 2 1 2 3 3 4 4 4 4 4 3 4 3 3 3 3 4 4 4 2 2 2 2 2 3 3 4 3 7 10 13 14 14 13 13 12 12 11
4 5 5 4 4 4 4 3 2 2 2 3 3 4 4 4 4 3 3 3 2 2 3 2 2 1 1 1 1 1 2 1 2 4 6 10 12 13 12 12 12 12 12
7 7 7 6 6 6 6 5 3 3 2 2 2 3 4 5 5 4 3 3 2 2 2 2 1 1 1 0 1 1 1 1 2 2 2 3 6 9 11 11 11 12 12
8 7 7 7 6 4 5 5 3 2 2 1 1 2 4 6 7 5 4 3 3 2 2 1 1 0 0 0 1 1 1 1 1 1 1 1 1 2 3 6 9 11 12
7 7 7 6 6 6 9 8 4 2 1 0 1 0 1 3 6 6 6 6 5 4 3 2 1 1 1 1 0 1 1 1 1 2 1 2 1 1 1 1 4 7 9
6 6 6 6 6 8 14 13 10 3 2 1 1 1 1 2 3 3 4 4 3 3 4 4 3 2 1 1 2 1 1 1 0 2 1 2 2 2 2 3 6 5 4
4 4 5 5 6 10 16 15 12 6 4 4 3 1 3 3 3 4 4 3 1 1 1 2 3 2 2 2 2 2 2 2 2 2 2 1 2 2 2 2 5 6 6
4 4 4 6 7 9 16 16 12 5 5 6 5 5 4 3 3 6 5 4 2 1 1 3 4 4 4 4 4 3 3 3 2 2 2 1 2 2 2 2 4 6 6
4 5 6 6 7 7 15 16 12 4 4 4 4 5 6 4 4 4 5 5 5 3 3 4 3 3 3 3 4 3 3 2 1 1 1 1 2 2 2 3 3 4 4
Wind_Direction
195 191 193 196 205 207 205 210 214 230 247 254 243 204 172 164 170 176 189 188 182 189 190 189 186 185 191 205 213 202 186 182 183 181 178 173 169 166 165 166 167 168 166
190 189 194 198 210 214 211 209 212 218 224 210 186 155 153 162 175 177 179 187 189 191 197 199 194 192 196 203 211 207 197 190 191 191 187 185 184 186 186 185 184 184 182
191 192 198 202 208 213 213 207 210 201 188 177 157 148 152 165 173 179 176 183 195 205 209 204 194 193 199 204 205 206 200 195 197 198 197 195 196 200 206 203 196 194 192
194 194 200 204 202 202 203 188 174 161 172 162 158 170 166 164 176 183 178 185 189 200 210 197 183 189 192 193 196 197 193 193 197 200 202 200 200 203 208 209 205 200 199
195 187 193 195 189 185 186 185 162 149 154 161 175 180 195 192 187 181 186 192 193 191 198 200 185 183 185 188 190 186 184 186 192 197 199 199 202 206 208 209 209 211 211
190 180 179 179 172 164 166 167 149 136 143 155 137 108 260 255 229 191 195 185 191 192 194 200 188 190 187 184 183 180 179 180 183 185 189 190 193 198 204 211 219 225 224
178 171 167 166 163 160 162 153 138 133 131 133 98 40 347 329 274 236 195 176 191 195 187 195 197 195 191 191 186 185 184 184 188 191 194 196 200 207 213 217 225 231 233
172 173 162 160 158 149 148 149 141 138 143 138 129 114 343 332 318 306 209 186 196 190 190 199 197 200 194 179 200 194 190 191 195 195 199 200 200 208 213 212 220 224 224
170 165 165 159 161 158 163 163 155 151 161 176 150 148 161 220 290 318 309 228 191 188 196 195 197 199 199 189 195 203 193 192 199 201 204 204 202 204 206 208 201 188 165
151 159 160 161 161 161 163 167 162 157 154 173 186 177 163 158 164 296 319 322 237 211 207 202 197 196 195 189 197 199 196 194 200 203 204 203 202 205 206 199 183 172 163
115 113 153 156 155 161 169 171 163 166 163 167 174 165 157 160 159 163 260 304 326 273 230 214 196 192 192 188 191 202 200 198 200 203 205 205 204 202 199 193 193 196 195
130 136 145 154 157 165 174 174 170 174 178 174 177 175 170 169 186 178 206 237 265 287 272 233 211 198 190 188 197 200 201 199 200 203 206 208 210 209 208 208 213 216 223
140 156 144 160 160 166 174 172 176 185 181 181 187 190 188 188 174 168 175 203 229 283 303 274 231 211 197 189 200 201 203 201 202 203 204 207 212 216 217 220 226 229 234
131 148 145 150 143 148 161 170 177 197 192 200 201 189 185 186 177 172 167 161 183 284 296 273 276 226 210 195 208 202 206 206 207 208 207 209 212 215 221 227 234 237 239
91 102 125 127 121 123 162 199 204 203 184 191 193 188 182 185 180 176 167 162 165 200 254 263 260 253 219 204 208 199 204 213 212 214 214 215 216 218 221 225 230 234 237
45 50 56 52 14 309 295 270 249 211 186 188 182 173 178 182 182 177 176 178 176 179 219 250 248 259 246 212 201 194 208 217 220 221 222 223 224 224 224 224 225 226 226
9 8 354 342 308 274 253 240 238 215 195 194 189 182 196 188 186 189 181 180 185 178 212 253 250 251 227 217 187 192 203 210 223 229 231 233 233 231 229 227 227 226 227
360 356 355 354 340 326 321 272 253 239 212 202 198 192 209 198 195 194 189 196 194 190 196 232 256 245 229 215 196 199 203 204 213 234 237 239 239 236 233 232 231 230 230
46 44 46 41 31 28 23 5 321 285 258 237 212 198 204 186 192 194 194 197 196 191 187 202 244 250 250 219 186 228 222 216 227 236 244 244 242 239 236 236 235 236 237
55 58 59 59 56 46 35 25 16 356 335 301 256 219 203 188 191 188 186 190 178 168 168 185 221 268 288 290 149 212 246 239 254 274 279 260 246 242 240 241 240 240 241
55 56 62 55 47 44 30 19 7 7 5 351 295 229 212 199 194 180 167 169 159 150 144 146 156 69 5 49 221 218 221 305 302 324 321 315 278 256 249 249 250 250 248
48 54 57 54 43 34 26 22 13 347 335 324 290 281 199 177 185 178 166 161 155 150 153 147 149 159 235 225 163 113 107 67 341 354 14 341 2 339 315 286 288 274 267
44 46 43 41 32 22 29 28 30 31 19 326 228 177 145 141 146 150 156 144 134 134 150 154 153 180 187 204 142 104 96 105 0 331 22 2 359 1 1 11 4 1 351
40 39 36 32 28 24 29 29 29 29 31 30 31 83 115 119 153 163 158 147 137 91 151 139 150 163 160 142 131 131 125 90 44 11 29 36 353 348 344 353 10 23 23
35 32 28 29 28 14 23 28 32 24 40 37 37 51 82 101 129 155 150 148 131 67 90 129 135 128 126 123 114 90 73 73 50 1 9 55 350 337 337 344 357 12 18
41 39 36 32 30 19 20 26 30 31 39 34 33 33 45 61 78 129 147 145 143 146 128 110 98 89 81 81 85 97 120 107 98 24 348 52 8 7 4 341 352 1 5